COSMOS 1420

Satellite information

Favourite Embed

Satellite Type and Status

PAYLOADIN ORBIT

Key statistics

Satellite COSMOS 1420 at a glance.

Uptime

15686

Days in orbit

Revolutions

≈ 14.3

Per day

Orbit

LEO

Low Earth Orbit

Inclination

74.0

Latest

Satellite identification and parameters

Extended collection of information and parameters for COSMOS 1420.

Object identification

Identified? True

Debris? False

Object name: COSMOS 1420

International designator: 1982-109A

Object number (NORAD): 13648

Object ID (CCSDS): 13648

Country: COMMONWEALTH OF INDEPENDENT STATES (CIS)

Current information (Y/N): Y

RCS size: LARGE

Orbital parameters

Period: 100.37 minutes

Inclination: 73.9923 deg

SMA: 7154.212 km

Apoapsis: 789.403 km

Periapsis: 762.751 km

RAAN: 260.7667 deg

Eccentricy: 0.00186267

Argument of periapsis: 64.5223 deg

Mean anomaly: 295.7853 deg

Mean motion: 14.34696515 rev/day

Mean motion (dot): 0.00000317 rev/day2

B* drag term: 0.00012108776 1/REarth

Two-line elements (TLE)

Creation date: Oct. 21, 2025, 6:24 p.m.

Reference frame: TEME

Reference center: EARTH

Epoch: Oct. 21, 2025, 9:03 a.m. UTC

TLE line 0: 0 COSMOS 1420

TLE line 1: 1 13648U 82109A 25294.37752677 .00000317 00000-0 12109-3 0 9995

TLE line 2: 2 13648 73.9923 260.7667 0018627 64.5223 295.7853 14.34696515245337

Live tracking on map

Real-time ground track for satellite COSMOS 1420.

In-orbit conjunctions

A list of the most updated potential collisions computed for object COSMOS 1420.

Target Orbit TCA Probability of collision Miss distance Type
CZ-4C R/B LEO 2025-09-11 15:43:06 0.0002622448 659.0 (m) ROCKET BODY
COSMOS 2251 DEB LEO 2025-08-26 17:06:09 0.003524044 406.0 (m) DEBRIS
CZ-6A DEB SSO 2025-02-18 12:43:07 0.0001503038 364.0 (m) DEBRIS
NOAA 16 DEB SSO 2025-02-11 10:52:45 0.0002392647 418.0 (m) DEBRIS
CZ-6A DEB LEO 2025-01-11 05:05:06 0.0003943311 434.0 (m) DEBRIS

Associated space launch

Military communications satellite

COSMOS 1420 was lifted into orbit during the mission ‘Kosmos-3M | Strela-2M 30’, on board a Kosmos-3M space rocket.

The launch took place on Nov. 11, 1982, 6:14 a.m. from 132/1 (132L).

For more information about the launch, click the button.

Launch to space Kosmos-3M | Strela-2M 30
Kosmos-3M | Strela-2M 30

Agency: N/A

Status: Launch Successful

Launch date: Nov. 11, 1982, 6:14 a.m. UTC

Rocket: Kosmos-3M

Launch pad: 132/1 (132L)

Location: Plesetsk Cosmodrome, Russian Federation

...

Latest news about this satellite

There are no fresh news available about this satellite. Check back as we update our databases every day.


Newsletter sign-up

Weekly statistics, charts and insights to help you stay on top of the space industry.